Terminal Aerodrome Forecast
Issued by NWS

Home | Current Version | Previous Version | Text Only | Print | Product List | Glossary On
Versions: 1 2 3 4 5 6 7 8 9 10 11 12 13 14 15 16 17 18 19 20 21 22 23 24 25 26 27
122
FTUS43 KLSX 291224 AAA
TAFSUS
TAF AMD
KSUS 291224Z 2912/3012 09012KT P6SM BKN018
     FM291400 10009KT P6SM VCSH BKN025
     FM291800 11012G20KT P6SM OVC035
     FM292200 11012G17KT P6SM OVC025
     FM300500 12012KT 5SM -SHRA VCTS BKN015CB
     FM301000 14008KT P6SM VCSH OVC008=

USA.gov is the U.S. government's official web portal to all federal, state and local government web resources and services.